Theta_e
286 287 287 282 281 283 284 281 282 281 280 279 277 278 282 283 279 278 283 284 282 284 287 289 289 290 290 291 291 287 284 282 279 277 277 277 277 277 277 277 277 277 277 276 275 275 274 273 272 272 271 270 270 269 269 268 268 267 267 266 266 265 265 265 265 265 265 265 265 265 265 265 264 264 264 263 264 264 264 264 264 264 265 265 265 265 266
285 285 285 283 281 281 282 282 282 282 280 279 280 281 282 282 281 283 284 284 284 287 288 290 291 292 292 292 292 289 283 281 279 278 277 277 277 277 277 277 277 277 277 276 275 274 274 273 272 271 270 269 269 268 268 268 267 267 266 265 265 264 264 264 264 265 264 264 264 264 264 263 263 262 262 262 262 262 263 263 264 264 264 265 265 265 265
284 285 285 283 282 282 282 283 284 284 280 281 282 282 282 282 281 283 283 282 283 288 291 291 292 292 292 291 290 290 290 287 281 279 278 278 277 277 277 277 277 277 276 275 275 274 274 273 272 270 269 268 267 268 268 267 266 266 265 264 264 263 263 264 264 264 263 263 263 262 262 261 261 261 261 261 261 261 262 263 263 264 265 265 265 266 266
281 285 284 281 282 281 281 282 284 284 283 281 282 281 283 281 280 282 281 279 281 287 290 290 290 290 289 289 289 289 289 286 281 280 279 278 278 277 277 277 277 276 276 275 275 274 273 272 271 269 268 267 267 267 267 266 266 265 264 263 263 262 263 263 263 263 262 262 261 260 260 260 260 260 260 260 260 261 262 262 263 264 265 265 266 266 265
279 283 278 278 279 278 279 281 284 285 285 286 286 286 286 285 285 281 280 281 287 289 289 288 289 289 289 289 289 289 288 284 282 281 280 279 279 278 278 277 277 276 276 276 275 274 272 271 269 268 268 267 266 266 265 265 264 263 263 262 262 262 262 262 262 261 261 260 259 259 259 259 259 259 259 260 260 261 261 263 264 264 264 264 264 265 265
281 278 276 278 278 274 277 287 287 288 285 285 283 284 285 287 287 285 287 288 290 290 289 288 289 289 290 291 291 288 288 287 283 280 280 280 279 279 278 278 277 277 276 275 274 273 271 270 269 268 267 266 266 265 265 264 263 263 262 262 261 261 261 261 261 260 259 258 258 258 258 258 258 258 259 259 260 262 263 263 263 263 263 263 264 264 264
280 277 278 275 272 275 286 287 286 285 287 287 285 286 287 287 288 288 287 288 289 290 290 291 291 291 292 293 291 283 285 286 285 282 280 279 279 278 278 277 277 276 275 274 272 271 269 269 267 267 266 265 264 264 264 263 263 262 261 261 260 261 260 260 259 259 258 258 257 257 257 258 258 258 258 259 261 262 262 263 262 262 262 262 262 263 263
275 275 277 273 274 285 286 288 288 285 284 283 283 283 286 287 288 288 286 288 290 290 290 291 291 291 291 288 284 283 284 284 284 283 282 280 279 278 278 278 277 276 274 273 271 269 269 267 266 265 265 264 263 263 263 262 261 261 260 259 260 259 259 258 258 258 257 256 256 256 257 257 257 258 259 260 260 261 262 262 262 263 262 262 262 262 263
277 278 278 277 284 283 285 286 287 286 283 279 282 281 284 289 289 288 287 288 289 290 290 290 291 286 283 285 288 287 283 283 283 284 284 281 280 280 279 278 277 276 274 272 270 268 267 266 265 264 264 263 263 262 261 261 260 260 260 258 259 258 258 258 257 257 257 256 255 256 256 256 256 257 258 259 260 261 261 261 261 261 261 261 262 262 262
285 279 277 278 277 275 280 287 290 286 287 287 286 284 283 290 291 290 288 288 289 289 289 289 284 279 282 283 285 289 284 283 281 281 280 279 279 279 278 276 274 273 271 270 268 266 265 264 264 263 263 262 262 261 260 260 259 259 259 258 258 257 257 257 256 256 256 255 255 255 255 255 256 258 259 260 260 261 260 260 260 260 261 261 262 262 263
282 280 277 276 275 278 286 287 286 282 284 286 284 281 280 288 289 288 290 289 289 289 288 286 280 281 278 282 285 289 280 279 279 279 277 278 278 277 276 274 272 269 268 267 266 265 264 262 262 262 262 261 260 260 260 259 259 258 258 258 257 256 256 256 256 255 255 255 255 254 255 256 256 257 258 259 260 260 260 260 260 260 261 261 262 263 264
281 280 278 276 281 280 285 287 280 281 284 286 284 274 278 289 289 290 290 289 289 289 288 282 281 281 279 281 286 283 280 279 278 278 276 276 275 274 273 272 269 267 266 265 264 263 262 262 262 261 260 260 260 259 259 259 258 258 258 257 257 257 256 255 255 254 255 254 254 254 255 256 257 258 259 259 259 259 259 260 260 260 261 261 262 263 265
280 281 279 281 282 288 290 287 280 283 285 285 277 275 284 287 285 288 289 288 289 288 283 281 281 283 287 285 279 274 276 276 275 275 275 275 274 272 270 269 269 265 265 265 264 264 263 262 261 261 260 259 259 259 259 258 258 258 258 257 256 255 254 254 254 254 254 254 254 254 255 256 257 258 258 258 258 258 258 259 260 260 261 262 263 264 265
278 279 278 279 283 288 291 284 285 284 284 277 278 288 289 289 290 285 288 287 288 287 283 282 284 286 283 274 275 275 275 276 275 274 272 271 270 269 269 268 266 265 264 264 263 263 262 261 261 260 260 259 259 258 258 257 258 258 257 256 255 254 253 253 253 253 253 254 254 254 255 256 256 257 258 258 258 258 259 259 259 260 261 263 263 264 265
280 280 277 277 274 285 293 284 283 283 283 285 292 292 286 288 287 285 284 286 286 285 284 284 284 281 276 277 276 275 276 274 273 271 270 269 268 267 266 265 265 264 263 262 262 261 261 261 260 260 259 258 258 258 257 258 257 257 256 255 254 253 252 251 251 252 253 253 253 254 255 256 256 256 257 257 257 258 258 259 260 261 262 263 263 264 265
277 277 275 276 283 289 287 287 284 284 288 293 294 291 291 292 287 286 286 284 285 285 286 285 283 282 279 276 276 275 275 274 272 271 270 268 268 266 266 265 265 264 263 262 261 260 260 260 260 259 258 258 258 257 258 258 257 256 255 253 253 251 250 250 251 252 252 253 254 254 255 256 255 255 256 256 257 257 258 260 260 261 262 263 264 264 264
284 281 284 288 291 288 287 291 292 292 291 293 293 291 290 290 287 286 287 288 285 285 286 285 284 281 279 279 277 276 275 273 271 270 268 268 267 266 265 264 264 264 262 261 260 259 259 259 259 258 258 257 257 257 258 257 256 255 253 252 250 249 249 249 249 251 252 253 254 254 254 255 255 255 255 256 256 257 259 260 261 261 262 264 264 263 264
291 291 291 291 286 283 286 290 293 293 293 291 290 289 289 289 289 286 287 288 286 284 284 284 282 282 280 278 276 276 274 272 271 270 268 268 267 266 265 264 264 263 262 260 259 258 258 258 258 258 258 257 256 258 257 256 255 253 252 250 249 248 248 249 249 250 251 253 254 255 254 255 255 255 255 255 256 257 259 260 261 261 262 264 264 264 264
287 282 291 290 290 288 286 288 290 292 291 289 288 289 289 290 290 287 286 286 285 284 283 284 283 282 279 278 277 276 273 271 270 269 268 267 266 265 264 264 263 261 260 259 258 258 257 258 257 257 257 257 257 257 255 255 254 252 250 249 249 248 247 248 248 249 251 253 254 254 254 254 254 255 255 255 256 258 259 260 261 262 264 264 264 264 264
286 286 291 292 292 293 291 288 288 288 289 289 286 287 289 289 289 287 285 285 284 284 283 284 284 282 279 278 276 274 273 271 270 269 268 267 266 265 265 263 262 261 260 259 258 258 258 258 257 257 256 256 256 255 255 254 252 250 249 250 248 247 247 249 249 250 251 255 254 253 253 254 254 254 254 255 257 258 259 260 261 263 264 264 264 264 264
288 291 291 292 291 286 288 291 291 291 292 291 289 288 287 285 284 284 283 285 285 284 284 284 283 281 278 278 277 274 273 271 270 269 268 267 266 265 263 262 261 260 260 259 258 258 258 258 257 256 255 255 255 255 254 252 251 249 249 250 248 247 249 249 250 251 251 250 252 252 252 253 254 255 254 256 258 259 261 263 264 265 264 264 265 266 265
285 286 288 291 286 286 290 291 292 292 292 291 289 289 287 286 285 285 284 283 283 284 284 284 283 282 279 278 277 275 273 272 271 269 267 266 265 264 263 261 261 261 260 259 258 258 258 257 256 255 254 254 254 254 253 252 250 249 248 248 247 247 248 248 249 251 251 251 250 252 251 252 253 254 258 263 262 261 261 266 269 270 270 266 266 267 266
285 290 293 293 293 292 294 295 295 294 292 291 289 289 289 288 287 286 285 283 281 282 283 284 283 282 280 277 277 275 273 272 271 269 267 265 264 263 261 261 261 260 259 259 258 258 257 256 255 254 254 254 253 253 253 252 250 249 248 248 248 247 247 247 250 251 251 251 251 252 252 252 252 253 253 255 262 265 266 266 267 269 269 270 270 271 268
293 294 294 294 293 291 293 295 295 294 292 292 291 291 290 290 288 286 285 285 284 283 283 283 283 283 280 278 276 275 274 272 270 268 267 266 264 262 261 261 260 259 258 258 257 257 256 255 254 254 253 253 252 252 252 251 250 249 248 248 248 247 246 248 250 251 251 251 251 251 251 252 252 252 251 251 253 261 264 265 266 267 268 268 269 270 271
292 296 296 295 294 294 295 295 295 295 291 290 290 289 290 289 289 288 286 285 286 286 284 282 281 281 279 277 276 275 273 271 269 268 266 265 263 261 261 261 259 259 258 258 258 257 256 255 254 254 253 252 252 252 251 250 249 247 247 248 249 247 247 248 250 252 251 250 250 250 250 251 252 251 250 250 250 251 255 262 264 265 265 267 268 268 269
296 296 296 296 294 294 294 293 291 291 290 289 289 289 289 289 289 288 286 286 286 286 285 283 280 279 279 277 276 275 273 270 269 267 264 263 262 261 260 260 260 259 258 258 257 256 255 254 253 253 252 252 252 251 249 249 248 247 246 246 247 246 246 248 249 249 250 249 249 250 250 251 251 250 250 250 250 251 251 252 254 258 262 264 265 266 268
296 297 295 292 292 292 291 291 292 294 291 288 289 290 290 289 288 288 287 286 286 286 285 283 281 279 278 277 276 274 271 269 267 265 264 262 261 261 261 261 260 259 258 257 256 255 254 253 253 252 251 251 251 249 248 246 246 246 246 247 246 249 252 252 250 251 250 251 250 250 251 251 249 250 250 251 251 251 250 250 251 251 252 254 259 264 263
296 296 296 292 291 293 294 294 293 293 288 287 288 288 289 287 285 285 284 283 282 281 281 280 279 277 276 275 274 271 269 267 265 264 263 262 262 262 261 260 259 258 257 256 255 255 254 253 252 252 251 251 251 249 247 246 246 246 245 245 247 248 249 249 250 248 248 247 250 248 248 249 249 250 250 250 250 250 251 251 251 251 251 253 253 259 264
294 295 296 295 295 296 296 293 286 289 288 286 286 286 285 284 283 284 283 283 283 280 279 279 278 278 276 274 272 269 267 266 265 264 263 263 262 260 259 258 257 257 256 255 254 254 253 252 252 252 251 251 249 247 246 245 246 246 246 245 244 246 247 246 245 245 245 245 246 249 253 251 249 248 249 250 250 250 250 249 250 251 251 251 253 254 257
294 294 294 294 294 293 292 291 290 287 286 284 283 283 284 284 282 282 283 282 280 279 280 278 277 276 275 272 271 269 267 266 266 265 264 262 260 259 258 257 256 255 255 254 254 253 253 252 252 252 251 251 248 246 245 245 245 245 245 244 243 243 245 249 248 247 245 245 247 252 249 248 247 247 248 248 249 249 249 249 251 250 250 250 253 251 252
293 293 292 292 292 291 290 291 291 291 286 282 282 282 281 282 283 283 282 281 280 280 278 277 276 274 273 272 271 270 269 268 266 265 262 260 258 257 256 256 255 254 253 254 254 253 252 252 252 251 251 249 247 245 245 246 244 244 244 243 242 252 255 257 256 249 246 246 247 246 246 247 247 248 249 249 248 248 248 248 248 249 250 249 250 251 251
291 290 290 290 290 290 289 290 289 289 286 281 280 280 281 281 281 282 282 280 279 279 277 276 274 273 273 272 270 269 268 267 265 262 260 258 257 257 257 258 259 258 257 255 253 253 252 251 251 251 251 249 246 245 246 245 245 246 245 247 243 242 249 257 250 251 248 247 246 245 246 246 246 247 247 247 247 247 247 247 248 248 248 249 249 250 251
288 288 288 289 288 288 288 289 289 288 288 283 282 284 284 284 285 284 283 281 279 277 276 276 275 273 272 270 269 267 265 264 262 259 258 257 257 256 257 258 259 259 257 255 254 253 252 252 251 250 249 247 246 245 246 246 246 245 243 242 241 243 250 253 252 247 246 247 244 245 244 245 245 244 244 246 247 247 246 247 248 248 248 248 249 250 252
289 289 290 291 290 289 288 288 289 289 289 288 286 285 285 284 283 283 282 279 278 276 276 275 274 272 271 269 267 264 262 259 258 257 256 256 255 256 257 255 256 256 255 254 253 252 252 252 250 249 248 248 249 248 246 246 245 244 243 241 242 244 244 245 247 245 244 245 245 247 243 245 243 244 246 246 245 245 247 247 248 248 248 248 248 249 253
292 292 292 292 292 292 291 290 289 289 288 288 286 284 284 283 282 282 280 279 277 277 277 275 273 271 269 266 263 261 261 260 258 257 256 256 255 256 254 252 252 252 251 251 252 251 251 250 250 248 248 250 250 249 248 246 245 244 242 243 245 244 243 245 244 244 244 243 243 242 242 243 243 247 247 245 244 245 245 246 247 247 247 247 248 249 250
291 291 291 291 291 291 290 289 290 290 289 288 287 285 282 281 281 280 278 278 278 277 275 272 270 268 266 264 262 262 263 261 259 257 256 255 255 254 252 251 251 251 251 251 251 250 249 249 250 250 250 250 250 250 249 246 244 244 244 243 244 244 245 245 244 243 244 242 242 243 242 246 246 245 246 244 243 243 243 244 246 246 246 247 247 248 249
289 289 290 290 290 290 290 290 289 289 288 287 286 284 282 281 281 280 278 277 276 275 272 269 269 268 266 266 265 265 265 260 258 257 256 255 254 253 252 252 252 252 252 251 251 249 249 250 251 251 251 251 250 249 250 249 244 244 243 242 242 242 242 241 242 241 241 241 243 241 244 243 241 241 244 242 243 243 244 244 246 246 246 246 247 248 248
290 290 289 287 288 288 289 289 289 287 285 282 281 281 281 281 280 278 277 276 274 272 270 270 269 269 267 266 266 265 263 261 259 257 255 254 253 253 253 253 254 254 255 256 251 248 249 251 251 251 251 251 250 250 251 250 248 243 242 242 242 242 243 242 242 243 242 240 244 240 240 240 240 240 241 240 241 242 244 244 245 246 245 246 246 247 247
288 288 287 286 286 286 286 283 282 282 282 281 281 280 281 280 278 276 275 274 272 271 270 270 269 267 266 266 265 264 261 260 258 255 253 253 254 255 255 256 256 256 256 253 250 250 250 251 251 250 249 249 250 250 251 250 247 242 242 242 241 242 243 242 241 242 243 243 241 241 239 241 241 241 241 242 241 244 244 246 246 245 245 244 245 245 246
286 285 284 284 283 283 281 280 281 281 282 282 281 280 279 277 276 274 272 270 269 269 270 268 267 266 266 265 264 262 261 258 255 254 254 254 256 256 255 253 252 250 252 252 252 251 251 251 250 250 249 250 249 250 250 249 248 244 243 242 242 242 242 242 241 241 241 240 241 244 241 241 241 242 242 242 241 242 243 243 243 244 244 244 244 245 246
284 283 282 281 281 279 279 279 280 279 280 280 281 280 278 276 274 271 268 267 268 269 269 268 267 266 266 265 263 260 258 256 255 255 255 256 256 255 255 254 253 251 252 252 252 252 251 251 250 250 249 249 248 250 250 249 247 246 243 243 242 242 242 242 241 241 241 241 242 240 240 240 240 240 241 240 241 240 241 241 242 242 242 243 243 244 245
281 280 279 280 281 280 280 279 278 278 278 278 277 276 275 274 272 270 268 268 268 268 267 268 266 267 266 263 260 257 256 256 255 255 256 257 257 257 257 255 252 251 252 252 252 251 251 250 250 250 249 248 249 250 249 248 246 247 245 245 243 243 243 243 242 241 241 240 239 238 240 240 239 239 240 240 239 241 241 242 241 242 242 243 243 243 244
279 280 280 279 277 277 277 277 277 276 274 274 274 274 273 272 270 268 267 267 267 267 267 266 264 263 261 258 257 256 255 255 255 255 256 254 254 255 258 254 251 251 252 252 252 251 251 250 250 249 249 249 249 249 249 247 246 246 245 246 246 246 245 243 241 241 240 238 238 238 239 240 239 238 240 238 238 239 240 241 241 242 242 242 242 243 244
274 276 276 275 276 276 276 275 273 273 272 271 272 271 270 269 268 267 267 266 266 266 265 264 263 261 259 257 256 255 254 254 255 256 255 254 254 254 254 252 251 251 252 252 251 251 250 250 250 249 249 249 249 249 248 247 246 246 246 246 245 246 246 243 242 241 240 242 241 238 239 242 241 239 239 240 239 239 242 241 240 240 242 242 242 243 243
275 276 276 276 276 275 274 273 272 270 269 269 269 268 268 267 267 267 267 266 265 264 263 262 260 259 258 258 257 255 255 256 256 257 256 255 254 253 252 252 251 251 252 251 251 250 250 250 250 249 249 250 249 249 248 247 247 247 246 245 245 245 244 244 244 243 242 241 243 244 242 241 239 241 240 240 242 241 241 242 241 241 242 242 242 242 243
273 274 274 273 274 272 271 269 268 268 267 266 265 265 266 266 266 266 266 265 264 264 263 262 260 259 259 257 256 256 256 256 254 252 254 257 259 254 252 252 251 251 251 251 250 250 250 250 250 249 249 249 249 248 247 248 247 246 245 245 244 244 244 246 243 242 241 241 240 240 240 240 239 238 237 237 238 240 241 243 242 240 239 241 241 242 243
274 273 272 270 268 267 268 268 267 266 266 264 262 261 263 264 264 264 263 263 262 261 260 260 259 259 259 257 256 255 254 253 253 253 252 252 251 252 252 252 251 251 251 250 250 250 250 249 249 249 249 249 248 246 246 246 245 245 244 244 244 245 244 242 241 240 239 240 241 243 243 241 239 237 239 240 239 240 239 240 240 240 240 242 241 243 243
271 269 268 268 267 267 267 267 267 266 265 263 261 260 261 261 261 260 260 260 259 259 259 258 258 257 257 258 258 258 257 257 255 252 252 252 252 252 252 251 251 251 250 250 249 250 250 249 249 249 249 248 246 245 245 245 244 244 243 243 243 244 242 241 240 239 239 241 241 239 238 236 237 237 238 238 239 238 238 239 239 240 240 240 240 241 241
267 266 267 267 268 268 268 266 263 261 260 260 259 259 259 259 259 259 258 258 257 257 256 256 256 256 255 256 256 256 255 253 256 253 252 252 252 252 251 251 250 250 250 249 249 249 249 249 249 248 248 246 245 245 244 245 244 244 243 243 242 241 241 240 238 237 237 238 238 239 238 238 238 237 237 238 238 238 239 239 239 238 239 240 241 241 240
266 267 266 266 266 266 264 261 259 259 259 259 258 259 259 259 257 257 257 256 255 255 255 254 254 254 254 253 253 252 253 252 252 252 252 252 252 251 251 250 250 250 249 249 249 249 249 249 248 248 246 245 244 244 244 244 245 245 244 244 245 241 241 242 244 243 240 240 239 239 240 239 237 239 240 239 239 239 239 239 239 241 244 243 240 240 239
259 258 258 258 259 259 260 259 259 259 259 259 259 259 259 257 256 256 256 255 255 254 253 252 253 253 253 252 252 252 252 252 252 251 251 251 251 250 250 250 250 249 249 249 248 248 248 247 247 246 245 244 244 243 244 244 244 244 245 244 244 242 243 243 242 241 241 240 239 239 239 239 238 237 237 237 239 239 239 239 239 239 238 238 239 238 239
257 257 257 258 257 258 258 258 259 259 259 259 259 258 257 257 256 255 255 255 254 253 253 252 251 251 252 252 252 252 252 252 251 251 251 250 250 250 249 249 249 249 249 248 248 248 248 247 247 246 245 245 243 243 245 245 244 243 243 244 244 244 242 242 241 240 240 240 240 239 240 239 238 238 238 238 238 239 239 239 238 238 238 238 238 239 239
Wind_Speed
19 20 21 8 7 9 10 12 17 17 16 13 17 21 29 23 14 23 24 23 24 30 30 26 24 22 19 20 20 9 10 7 6 5 6 10 12 10 11 14 14 14 15 15 13 12 11 10 10 8 7 6 4 3 3 2 1 1 1 2 4 4 5 6 7 7 8 7 8 9 10 9 10 11 11 12 12 13 14 15 14 14 18 19 21 22 18
17 21 18 7 11 8 8 13 18 16 11 18 23 29 31 20 19 25 29 28 29 30 29 25 25 22 18 18 16 10 5 7 7 9 10 12 12 14 16 16 16 16 15 13 13 13 12 11 10 9 7 6 5 4 3 2 1 1 2 2 3 4 5 7 7 8 8 8 8 9 9 10 10 11 11 12 12 13 14 14 15 17 16 16 19 18 20
18 20 15 8 13 10 15 20 25 19 11 19 28 26 18 14 18 28 30 26 30 31 29 20 21 20 16 17 20 21 19 12 10 11 12 13 13 15 16 14 14 14 13 13 12 14 13 12 11 9 7 6 5 4 3 2 1 1 1 2 2 4 6 7 7 8 7 7 8 9 9 9 9 10 12 11 12 12 13 14 15 15 17 20 17 17 19
16 16 13 7 10 8 12 20 30 24 19 22 25 20 15 14 24 24 17 21 26 31 24 16 17 19 19 23 22 19 16 10 9 12 14 14 14 15 16 15 14 13 15 16 16 16 13 11 10 9 8 7 6 4 4 2 1 1 1 1 3 5 6 7 7 7 7 7 7 8 8 9 10 10 11 11 12 13 14 16 15 14 16 16 17 17 16
16 11 7 7 4 2 9 22 32 27 24 23 21 18 16 22 21 15 19 27 30 23 11 17 22 22 20 18 19 18 12 8 12 15 15 14 15 15 15 16 17 18 18 19 16 13 11 11 10 9 9 7 6 5 4 3 2 0 1 2 4 5 6 6 6 6 5 6 7 7 8 9 9 10 11 11 12 14 15 14 14 16 17 18 18 17 17
11 4 4 6 5 12 23 15 3 15 22 21 22 23 28 24 18 20 23 27 29 18 13 19 23 22 22 21 17 7 9 11 12 11 12 14 14 14 14 16 18 17 13 11 11 12 11 10 9 8 8 7 5 5 4 3 1 1 1 3 4 6 6 6 6 6 5 5 6 7 8 9 9 10 11 12 12 12 12 14 15 15 16 18 17 17 17
9 5 6 1 15 20 18 8 5 5 10 14 19 23 23 26 25 24 23 27 32 25 21 24 23 22 24 23 16 4 10 11 9 12 15 14 13 15 15 14 14 15 16 13 12 12 11 11 9 9 8 5 6 5 4 3 1 1 1 3 5 5 6 6 5 4 5 6 7 8 9 9 10 10 11 12 13 11 12 14 15 15 16 17 17 17 18
5 3 9 15 22 9 7 11 11 5 2 5 5 14 21 23 24 21 19 26 30 25 24 22 20 22 19 16 9 8 11 10 11 12 12 13 14 14 15 17 17 17 18 19 17 14 10 10 8 7 7 6 6 5 3 3 2 1 2 4 5 5 4 4 4 5 5 6 7 8 9 10 10 10 10 12 13 13 12 13 13 13 13 13 16 17 16
14 10 13 21 12 18 21 20 22 13 8 5 9 16 20 24 22 16 17 23 25 24 20 20 19 8 5 12 19 9 11 12 13 15 14 13 14 15 14 16 15 14 12 14 15 14 13 10 10 7 7 6 6 5 4 3 2 2 3 3 5 5 4 4 4 5 6 7 7 8 9 10 11 11 12 13 12 11 13 13 14 13 14 14 14 15 17
11 15 13 12 11 18 22 28 20 7 7 9 11 8 22 24 30 10 18 23 24 22 18 17 7 4 4 14 16 14 8 11 11 9 6 5 6 7 9 10 12 13 13 14 14 16 14 10 8 7 7 7 6 5 4 4 3 3 3 4 4 4 5 3 4 5 6 6 7 8 9 10 11 11 10 11 10 10 12 14 14 14 14 14 14 14 16
10 13 15 16 15 21 13 21 9 1 1 10 5 4 18 24 10 18 20 17 20 19 16 9 8 4 5 14 14 13 3 6 7 8 4 5 7 11 15 19 19 16 16 17 16 13 13 12 8 8 7 7 6 5 5 4 3 2 3 4 3 3 4 4 4 4 5 5 7 7 8 10 10 12 12 12 11 11 10 11 13 12 12 13 14 13 14
15 16 15 17 9 13 8 10 2 6 11 9 8 8 18 21 12 20 15 20 18 16 12 6 8 10 11 11 15 3 6 6 6 9 9 10 11 11 12 11 17 19 17 16 14 12 11 10 9 9 8 6 4 5 5 4 3 3 4 3 3 4 4 3 3 4 4 5 6 7 10 10 10 10 10 10 11 11 11 10 11 12 12 13 16 15 15
19 19 17 13 11 9 14 9 8 7 6 8 5 19 28 4 7 9 14 14 15 12 7 11 10 13 16 9 0 4 5 7 5 5 5 8 12 16 17 16 14 13 10 11 13 12 11 11 10 9 7 6 6 4 5 3 4 4 3 2 3 3 3 3 3 4 4 4 7 7 7 9 10 10 9 10 12 12 12 11 11 12 13 14 15 15 14
17 18 19 16 12 7 13 4 17 7 5 8 19 26 8 2 6 10 10 13 11 9 12 11 12 12 6 4 3 5 5 7 8 9 11 13 12 11 13 15 17 13 11 11 12 11 10 11 9 8 7 7 6 5 4 4 4 3 2 2 1 2 2 3 4 4 5 5 5 6 8 9 10 10 9 9 9 11 10 11 13 14 14 14 15 15 14
7 7 11 9 11 14 21 11 3 3 11 23 25 16 3 2 5 9 7 10 9 10 10 13 13 4 3 6 6 6 7 9 12 15 19 20 18 16 16 15 10 14 13 12 11 12 10 9 8 8 8 8 7 5 4 5 3 3 2 1 1 1 2 3 4 5 5 5 6 5 7 9 10 12 10 9 9 10 11 11 12 13 15 16 15 15 14
11 14 12 13 19 17 18 23 16 18 26 28 22 9 14 15 7 7 8 9 10 13 13 13 12 10 7 5 7 7 7 8 9 12 13 15 16 15 13 16 17 11 12 11 11 10 9 8 8 8 8 8 7 6 6 4 4 3 2 0 1 1 1 3 4 5 6 6 6 5 7 9 9 10 10 10 9 9 10 10 11 12 14 12 13 13 17
14 14 17 19 17 9 18 23 23 25 31 29 23 11 10 11 9 6 7 12 10 13 13 11 12 10 11 12 13 13 13 12 14 16 19 19 19 19 19 16 10 6 13 14 12 11 9 9 7 7 6 8 8 7 5 4 4 3 2 0 1 1 3 3 4 5 6 6 6 6 6 7 9 9 10 9 9 8 8 9 11 11 11 12 14 14 13
13 16 10 7 3 6 15 18 19 23 21 17 16 15 14 14 11 9 11 11 10 10 10 11 7 12 13 12 11 10 11 12 11 11 13 11 12 13 13 11 11 10 10 11 12 13 9 8 7 6 5 6 8 6 6 4 4 2 2 2 2 3 3 3 4 5 7 9 8 7 7 6 7 8 9 9 9 10 9 9 11 11 8 12 13 15 14
9 15 15 26 22 15 14 21 24 21 13 13 13 15 18 19 14 9 8 8 10 12 12 15 15 13 12 13 12 11 11 13 16 17 14 14 14 16 15 13 15 13 12 12 11 12 12 9 7 7 6 5 5 5 6 5 3 3 3 3 3 2 3 3 3 4 5 6 9 10 8 6 6 7 8 8 9 9 9 10 8 8 9 15 15 12 17
19 20 20 23 22 24 20 17 16 18 22 21 12 14 13 14 10 8 10 7 7 9 12 15 13 12 13 14 13 13 14 15 15 15 13 15 11 7 9 13 11 12 12 12 13 12 10 9 8 7 6 6 6 6 5 5 4 4 3 3 3 2 2 3 3 4 4 7 8 9 10 9 7 6 6 7 8 9 10 11 9 11 11 12 12 15 12
23 20 19 15 14 3 10 19 22 24 23 19 19 16 13 7 6 8 8 11 13 12 16 13 10 10 12 15 17 17 13 13 12 12 13 12 13 14 15 13 15 13 12 11 12 12 10 9 8 7 7 6 6 7 5 5 5 5 5 3 3 2 1 2 4 3 3 3 5 6 9 11 10 6 6 7 8 8 9 8 10 12 10 11 11 13 10
17 18 20 19 18 18 18 25 28 28 23 17 13 12 13 14 14 13 13 11 7 9 11 13 14 16 14 14 14 17 17 18 18 15 16 16 18 12 9 9 9 11 9 13 13 12 10 9 8 8 8 7 6 6 5 5 4 6 5 4 3 3 2 3 3 4 4 4 4 5 6 7 10 14 12 14 10 9 9 16 22 21 19 13 15 12 11
20 21 24 22 24 23 21 23 23 18 14 15 17 19 20 20 19 18 14 13 10 11 13 13 17 17 16 18 17 16 14 15 19 23 25 22 14 13 14 14 16 17 13 12 16 13 9 8 8 8 8 7 6 6 5 5 4 7 6 5 4 3 2 3 3 3 4 5 5 5 5 6 5 5 12 15 16 17 18 20 20 21 21 23 25 25 18
27 22 21 20 20 21 20 23 24 17 10 16 20 22 21 20 19 18 17 19 20 18 14 14 16 18 17 17 20 19 15 14 19 21 21 22 20 16 13 17 20 15 13 13 13 13 10 9 9 8 8 7 6 5 4 4 4 7 6 6 5 2 2 1 2 3 2 3 5 5 6 5 4 5 5 7 14 19 20 19 20 21 21 23 25 26 27
23 19 22 20 19 21 19 22 21 16 10 13 15 17 20 20 17 16 18 17 17 19 16 15 13 11 15 17 18 19 19 18 20 24 20 17 17 16 16 19 20 22 16 10 9 9 9 10 9 8 8 7 7 6 5 4 6 8 5 5 5 2 1 1 1 3 3 3 3 5 6 6 6 5 5 7 8 11 16 20 20 18 19 23 25 26 27
25 24 22 20 15 17 14 12 14 12 13 13 13 12 16 19 20 16 18 20 17 15 15 15 13 11 14 16 15 14 16 19 21 19 20 16 12 11 20 22 21 16 16 11 9 9 9 10 8 8 8 7 7 6 5 5 5 6 5 5 4 3 2 1 1 2 3 3 4 5 5 5 5 6 6 5 7 8 10 13 15 16 18 22 23 26 25
23 23 20 21 20 18 14 18 20 17 13 10 16 17 17 16 16 15 16 15 15 13 15 14 12 10 9 12 14 17 19 16 18 24 22 21 20 21 21 19 18 19 18 15 11 9 10 9 7 7 7 7 6 5 7 8 8 7 6 5 3 2 2 1 0 1 2 2 4 4 5 4 5 6 6 7 6 7 8 10 11 12 13 15 19 23 20
24 23 22 25 25 24 26 24 23 17 8 12 14 15 12 6 6 8 11 10 7 6 5 9 13 15 15 14 16 13 14 23 28 21 19 27 21 16 15 19 18 18 17 12 8 9 8 7 7 8 7 7 6 6 8 7 8 7 6 4 3 2 1 1 0 0 2 2 3 5 5 5 4 5 6 6 7 7 7 7 8 9 11 11 12 18 26
22 22 21 24 26 24 22 14 4 10 14 10 9 8 7 9 12 13 14 15 13 10 11 13 13 16 17 16 16 19 21 20 22 24 24 20 16 14 16 17 17 15 12 9 8 7 7 8 9 9 8 7 8 9 8 7 7 7 6 5 4 2 1 0 1 0 1 3 4 4 5 6 5 5 5 6 7 6 7 7 8 8 9 11 11 12 13
20 19 18 20 21 21 22 21 17 11 10 9 10 10 12 13 12 14 15 12 11 15 15 15 16 15 15 17 18 21 23 25 23 20 18 17 16 19 17 15 12 9 8 7 9 9 10 8 9 10 8 8 9 9 8 7 6 6 6 5 4 3 2 1 2 2 1 2 3 5 5 3 5 4 5 5 5 6 7 7 9 9 10 11 11 12 14
20 18 20 19 19 18 19 22 20 19 13 10 11 11 11 13 16 15 14 14 13 14 13 16 17 16 16 19 18 16 16 17 18 18 19 20 17 14 15 17 24 18 19 13 12 11 12 14 12 12 8 9 11 9 8 7 7 6 6 5 2 2 4 4 4 2 1 1 3 3 4 4 5 6 7 7 7 7 7 7 7 8 9 9 9 11 12
18 18 20 19 18 20 21 18 18 18 14 11 11 14 16 18 19 21 18 15 19 19 17 16 17 21 19 15 15 16 16 16 17 19 22 18 14 13 12 11 16 15 16 16 12 11 14 12 12 10 8 10 11 9 7 7 7 7 6 5 5 3 2 5 4 3 2 3 2 3 6 4 5 5 5 6 6 6 7 7 8 8 8 9 10 10 12
20 21 22 21 19 19 19 19 19 21 18 16 18 20 19 20 20 19 17 17 14 14 18 21 18 16 16 16 16 17 19 18 21 22 17 13 12 11 13 11 8 11 11 13 14 15 16 14 11 12 12 12 10 9 7 7 6 7 6 5 5 3 3 4 3 2 2 2 2 2 2 4 3 4 4 5 5 6 6 6 6 7 8 8 8 9 10
24 23 24 24 24 24 24 24 20 21 19 18 18 18 17 15 16 16 15 14 18 20 19 18 17 17 17 18 19 19 24 24 22 18 16 15 12 14 13 9 9 10 9 11 11 10 7 8 13 12 13 10 7 7 8 6 6 7 6 6 6 4 3 2 2 1 1 2 3 4 3 4 3 3 5 6 5 5 6 6 7 7 7 8 8 8 14
25 27 26 26 24 23 21 21 19 19 19 20 17 16 16 15 14 15 17 18 20 22 19 16 18 18 18 21 26 28 30 31 27 25 17 14 14 17 14 14 13 11 12 10 10 8 8 11 12 14 11 8 7 6 7 8 7 7 5 6 5 4 3 3 1 1 2 1 1 1 2 2 2 4 5 4 4 6 5 6 5 6 6 8 9 9 10
23 22 19 19 19 19 18 18 19 20 18 18 18 17 15 15 16 15 19 21 16 15 17 19 20 19 21 23 23 24 25 25 24 27 23 17 20 19 17 19 16 16 14 11 3 9 11 12 10 11 9 8 6 6 8 7 6 7 6 6 4 5 4 2 3 1 2 1 1 2 1 3 3 4 4 4 4 4 4 5 5 6 6 6 7 9 9
18 19 17 19 18 16 17 17 18 19 20 19 18 17 18 15 16 12 9 10 13 16 18 21 21 22 24 24 22 19 23 20 19 16 13 15 17 13 13 12 12 18 15 14 10 9 10 8 12 14 9 7 7 6 8 9 7 7 6 7 5 4 4 3 2 2 2 1 1 1 3 3 2 2 4 3 4 5 5 5 7 6 5 6 7 7 9
22 23 20 15 15 17 19 22 18 14 10 6 5 6 12 13 12 13 14 14 15 17 21 23 23 20 18 16 16 19 17 16 19 20 24 23 16 15 11 13 13 11 12 12 15 12 9 14 17 11 7 7 7 7 8 10 8 8 7 7 5 4 5 3 4 4 2 1 1 1 1 1 2 4 4 3 4 4 6 6 6 6 5 6 6 6 7
15 16 14 13 13 14 16 7 3 5 8 13 12 11 10 11 12 14 14 14 14 16 18 16 15 19 20 19 16 15 17 19 21 28 23 15 17 21 17 12 9 7 5 11 15 10 9 12 11 9 8 8 8 9 10 11 10 7 7 5 5 4 4 4 3 4 2 1 0 1 1 1 1 2 4 4 3 5 6 6 6 6 6 6 6 7 7
17 14 14 12 13 11 5 6 8 10 9 10 13 14 13 14 13 14 13 14 15 18 19 19 21 18 18 19 19 17 15 14 16 17 16 17 14 10 9 7 6 6 11 16 13 11 12 14 10 7 6 7 9 8 6 9 8 8 6 6 6 5 4 5 3 2 1 1 1 2 1 2 1 2 3 4 5 5 6 6 6 6 6 5 5 6 7
15 13 11 11 10 6 8 8 8 6 7 9 10 12 14 16 15 15 15 15 16 16 18 20 20 18 20 19 20 17 15 14 15 20 21 17 14 13 14 11 6 8 10 11 10 10 12 10 8 9 8 8 8 7 8 9 7 6 6 6 5 6 5 4 3 2 2 1 1 0 0 1 1 2 4 3 4 4 5 5 5 5 5 6 6 6 6
15 10 6 6 8 9 7 5 7 8 6 8 10 12 13 15 17 18 17 17 16 15 15 14 17 20 17 16 18 17 13 13 11 11 14 16 18 15 12 7 7 7 11 14 14 12 10 9 8 6 7 6 8 9 8 8 6 5 5 5 4 5 4 4 4 2 2 1 1 0 1 0 1 1 1 3 3 5 5 5 5 5 5 5 5 6 6
9 9 7 4 1 2 5 7 9 10 10 9 11 12 14 14 15 16 16 17 18 16 15 14 13 17 19 17 17 17 13 16 17 15 8 7 8 4 3 11 9 9 17 13 12 10 10 8 9 7 7 9 9 12 10 6 6 6 5 5 5 4 4 3 3 3 2 1 1 1 0 0 0 1 1 2 3 4 5 5 5 6 6 6 6 6 6
4 3 4 6 6 7 9 10 10 11 13 10 10 12 14 13 16 19 18 17 16 17 18 17 16 18 21 19 17 14 13 11 13 11 11 9 7 8 11 13 8 13 17 12 11 10 9 8 7 9 12 12 15 12 8 6 5 5 5 5 5 5 5 4 4 3 3 2 2 2 1 1 0 0 1 2 3 4 4 5 4 5 5 5 5 5 5
2 4 7 9 10 10 10 10 12 12 11 12 12 12 13 14 13 14 17 17 17 15 15 16 18 18 13 14 12 7 11 12 15 15 15 11 10 5 5 9 12 11 12 13 10 9 9 7 10 13 12 15 14 11 6 6 5 5 5 5 5 5 5 4 5 2 3 2 2 1 3 1 1 1 0 1 3 3 3 5 5 4 5 5 6 6 6
4 4 6 10 10 9 9 11 12 13 14 15 15 13 11 11 12 11 11 14 15 13 13 14 17 15 16 14 14 15 13 9 7 8 6 2 7 10 12 12 12 10 15 15 9 9 8 12 15 14 14 15 13 9 6 5 5 5 5 5 4 6 4 3 2 3 3 2 3 2 2 1 1 1 2 2 2 3 3 5 6 4 5 5 4 5 5
6 8 9 10 11 12 13 13 13 14 15 15 17 15 10 12 12 11 11 11 12 13 13 13 13 11 10 18 21 17 13 11 8 6 6 9 15 13 13 15 15 18 15 10 9 9 10 12 12 14 15 14 11 7 6 6 6 5 5 5 5 4 4 4 3 5 2 2 4 3 3 2 1 1 2 1 2 2 2 3 5 5 4 6 4 6 5
8 9 7 10 13 12 14 13 13 12 12 13 15 16 12 13 13 14 14 14 15 15 14 12 11 11 11 9 6 6 11 17 17 5 4 9 10 12 12 10 12 14 15 12 13 11 16 15 16 15 15 13 8 6 6 6 5 5 5 5 3 5 4 4 3 3 3 2 2 3 2 3 2 1 1 1 3 2 3 3 5 4 4 4 5 5 4
10 10 11 11 11 11 12 11 13 13 12 13 17 13 13 15 15 13 13 15 16 15 14 12 12 11 9 8 8 7 7 8 4 10 9 7 11 11 10 12 17 16 12 10 11 9 13 15 15 14 11 7 7 6 6 6 6 7 5 5 4 6 5 4 4 4 3 3 3 3 2 2 2 2 2 2 3 3 4 3 4 3 4 5 5 6 4
8 8 9 8 8 8 8 11 11 8 8 12 14 11 11 14 13 9 10 12 14 13 13 9 8 8 8 7 8 10 9 13 17 14 11 10 12 12 12 12 11 12 12 11 11 9 10 14 13 11 9 6 6 6 5 6 5 5 5 5 4 4 4 4 3 4 4 4 3 2 2 2 2 2 4 2 3 3 3 3 3 5 6 5 6 5 5
9 10 8 9 10 11 13 11 9 9 8 8 9 9 11 12 12 10 11 11 10 13 13 10 8 7 7 7 7 7 9 10 11 12 12 11 11 11 11 10 11 10 11 11 9 9 8 7 7 6 6 6 6 5 5 5 4 4 4 3 4 4 4 4 5 3 3 3 3 3 2 2 1 2 2 3 2 3 4 4 4 3 3 4 5 5 5
13 12 13 12 9 10 10 10 10 9 9 9 9 10 10 11 13 12 11 9 7 10 12 15 15 7 5 6 8 8 9 10 8 8 9 9 9 8 11 12 11 10 10 8 7 8 6 6 7 6 6 5 5 5 5 5 4 4 3 4 3 3 3 4 4 3 2 2 2 3 2 1 1 2 2 2 2 3 3 3 4 4 3 3 4 4 5
Wind_Direction
245 247 250 161 198 222 229 210 225 223 207 203 210 227 236 229 211 243 251 243 245 253 260 267 266 268 266 270 279 261 237 237 228 215 200 204 204 193 190 198 193 188 186 183 174 168 168 160 162 158 153 151 148 161 157 176 174 150 40 333 319 311 300 288 286 292 299 300 292 294 301 304 307 310 312 312 311 311 308 306 299 295 298 297 295 294 288
245 250 247 189 200 235 251 250 243 230 175 211 218 228 233 224 232 244 253 255 257 260 261 258 266 270 275 281 285 287 258 237 223 212 215 213 204 197 201 199 196 194 187 175 173 168 167 169 162 157 156 157 162 166 172 166 156 50 51 326 320 309 296 290 292 296 297 295 300 304 308 313 314 315 315 315 313 310 304 299 299 296 288 290 294 292 295
251 251 245 202 220 228 249 254 256 243 182 219 231 234 241 235 245 249 253 263 267 261 258 263 270 278 285 282 276 272 272 260 228 221 220 218 207 206 207 200 195 189 180 176 171 173 175 166 162 157 154 153 150 160 169 165 126 95 45 321 303 290 284 287 294 295 296 299 305 309 313 314 317 319 318 316 313 309 306 305 301 298 300 300 301 303 301
256 251 245 189 206 225 238 254 256 249 226 230 244 242 226 213 235 245 259 262 258 259 267 275 269 267 266 267 269 270 266 252 222 222 225 217 211 208 203 198 188 181 180 181 180 178 168 160 154 153 150 152 157 167 166 144 120 88 350 297 284 276 276 282 285 292 297 302 307 312 318 319 320 319 315 315 313 312 311 309 305 303 303 303 305 304 302
245 264 100 142 117 96 278 248 242 239 240 235 247 255 243 223 226 236 242 247 250 262 282 278 273 267 261 262 262 263 264 234 218 221 223 218 214 208 198 191 189 186 186 185 178 163 156 157 154 152 147 151 164 161 141 122 90 77 285 271 277 274 274 276 284 294 296 307 313 319 323 321 318 317 316 315 316 316 313 310 310 311 310 309 308 308 304
247 222 123 117 158 222 236 254 210 218 236 237 237 242 244 243 214 226 231 251 263 269 268 262 264 272 269 264 263 239 222 238 231 225 226 221 214 207 198 193 188 187 177 167 164 160 152 146 135 124 140 147 140 125 118 118 148 208 273 284 270 272 275 279 288 294 307 318 323 325 323 320 319 320 321 318 315 310 308 314 313 310 309 308 308 309 308
240 125 129 145 216 231 240 63 200 192 215 222 226 237 243 245 241 237 242 252 261 258 256 259 262 266 270 272 280 230 221 224 219 219 222 216 207 199 192 186 183 178 172 160 148 143 138 129 126 132 136 133 124 115 126 148 175 165 261 271 274 272 280 285 289 303 324 331 332 328 324 322 321 319 319 316 317 316 316 316 314 314 315 313 310 308 305
32 123 200 234 240 253 331 297 263 226 224 227 224 256 250 250 246 238 232 243 253 258 255 258 258 259 273 293 274 223 237 211 214 223 223 214 200 197 191 185 180 170 168 168 157 134 122 123 127 129 130 127 123 124 145 155 148 220 244 261 266 277 286 291 309 328 337 338 333 328 325 324 322 317 318 320 317 318 315 311 309 308 305 301 301 303 301
236 221 227 242 304 306 282 284 262 224 184 163 182 254 262 260 249 218 227 244 250 253 254 254 259 279 343 290 285 243 213 226 215 217 224 202 198 197 192 183 173 159 149 138 130 129 132 129 136 129 128 125 124 138 148 161 160 224 239 253 263 281 282 299 326 338 341 336 331 326 324 322 321 321 320 318 316 316 311 310 310 309 305 303 300 300 302
216 246 250 259 245 251 252 244 266 82 173 178 193 204 269 262 262 187 210 232 246 249 248 252 255 71 296 281 271 273 215 224 212 227 231 200 192 163 128 114 118 128 130 122 120 127 124 127 122 119 126 131 135 146 153 161 176 219 227 245 267 278 288 308 334 342 337 331 325 323 321 319 317 314 309 307 307 312 309 311 311 309 306 303 300 299 301
227 236 239 241 243 247 249 272 266 240 141 154 97 190 259 261 251 150 212 225 237 242 239 236 109 147 234 255 260 265 165 211 197 198 190 141 140 142 147 146 141 140 135 125 122 123 126 125 129 124 126 131 141 151 154 167 190 214 232 250 269 287 303 323 332 334 328 324 317 314 314 312 313 312 313 313 308 307 304 303 302 302 303 303 302 302 301
232 240 242 244 221 261 252 268 160 194 129 122 95 279 262 268 148 194 191 214 226 234 230 155 160 174 230 252 258 253 182 181 176 165 153 134 128 125 122 124 124 113 119 119 120 127 130 131 128 129 130 138 148 150 154 164 195 216 229 244 277 294 306 318 325 325 322 314 310 311 313 311 307 306 307 308 309 309 308 304 302 304 304 304 304 307 309
231 229 249 262 262 252 256 244 152 168 142 112 204 243 257 208 153 174 190 205 217 216 182 154 196 211 212 229 216 94 108 101 94 87 106 128 137 140 132 126 130 121 123 121 131 134 133 133 134 135 140 142 151 151 156 173 209 212 226 255 280 296 313 321 323 321 317 307 309 308 304 304 304 307 310 310 310 310 311 309 305 305 307 307 309 310 313
227 228 234 243 263 259 248 172 155 177 99 229 232 243 237 224 259 159 186 196 211 198 173 197 207 223 214 86 140 115 141 140 131 127 117 101 80 75 92 125 124 119 118 114 113 115 123 131 134 142 146 149 140 148 163 201 204 204 218 250 280 309 329 325 317 315 312 311 308 309 308 308 311 309 307 303 303 308 306 308 309 311 312 315 317 316 313
232 239 246 243 253 247 211 138 84 203 194 238 238 240 11 254 181 177 195 194 198 166 203 208 214 196 138 167 155 172 141 146 149 146 147 143 142 142 139 139 150 132 124 129 129 131 133 133 138 147 148 140 140 148 185 196 182 192 220 233 318 324 329 322 327 319 316 320 321 317 312 311 311 308 309 310 310 307 307 309 313 315 319 323 323 321 322
204 207 202 217 211 239 135 157 191 203 213 234 240 239 254 246 204 187 195 214 190 184 197 197 210 203 172 151 162 158 163 143 142 139 129 115 124 127 140 143 145 115 116 122 125 129 134 140 145 150 157 136 143 164 190 170 177 176 202 315 340 340 334 334 328 325 323 325 320 315 314 313 308 303 310 315 315 314 313 315 321 323 322 320 331 331 333
201 209 215 222 226 193 171 191 212 215 218 229 242 228 240 250 235 199 186 221 196 195 196 198 192 192 195 192 177 170 175 162 157 160 163 158 156 155 152 152 141 126 133 135 129 129 139 142 148 149 149 137 149 177 174 162 188 185 186 156 95 23 10 341 335 323 324 327 325 321 318 311 310 310 311 320 319 318 319 323 326 319 313 333 339 330 322
225 247 241 259 220 179 205 220 223 231 231 233 241 241 248 244 235 182 209 214 196 193 189 185 204 200 192 169 177 174 162 161 156 142 145 139 147 140 129 126 139 129 112 114 127 133 139 148 147 145 139 149 159 168 159 166 175 168 162 130 70 32 9 352 333 332 340 334 329 325 320 307 297 299 307 319 320 320 326 328 328 319 307 338 339 338 333
209 241 212 237 231 223 200 219 230 237 240 229 215 221 229 240 233 213 228 204 194 192 179 197 197 199 175 179 178 167 158 161 164 165 159 158 159 155 152 150 132 130 133 131 139 142 143 156 149 141 147 164 160 145 162 164 164 162 154 110 83 39 13 345 333 354 357 340 330 324 321 312 296 298 312 313 317 320 324 322 299 291 322 343 338 335 338
219 235 225 229 230 231 219 224 241 245 240 235 222 222 227 233 234 209 210 190 203 182 194 203 197 191 179 174 172 170 173 171 167 167 158 151 145 147 131 139 135 129 141 140 145 147 145 151 145 143 156 161 157 157 159 156 162 150 121 93 82 40 355 353 353 355 358 332 330 318 316 319 315 306 303 307 319 327 331 327 317 332 337 338 334 320 327
233 244 253 256 256 270 248 237 233 236 239 231 228 231 236 237 229 219 210 197 203 185 206 190 184 180 188 185 175 171 171 169 169 168 161 163 150 144 149 153 155 159 154 142 145 143 138 140 142 151 162 157 162 165 158 160 162 133 109 91 95 60 21 22 6 5 349 319 315 309 311 318 313 307 308 317 326 315 319 310 329 336 336 338 333 330 330
235 226 229 225 244 243 239 240 236 234 236 240 235 233 232 227 227 220 213 218 216 211 199 184 183 187 187 183 175 176 176 176 170 150 147 134 139 138 132 138 142 123 133 137 141 135 131 138 147 155 159 159 163 157 154 157 156 130 117 113 95 69 48 33 13 1 347 331 311 306 305 310 317 322 324 340 338 331 322 337 342 345 349 345 346 338 335
234 226 231 226 231 239 236 247 247 237 222 224 224 226 228 225 223 219 211 209 203 210 214 195 187 190 182 185 175 174 176 179 170 147 152 148 154 147 145 139 148 152 151 146 120 122 132 143 152 158 157 159 157 155 158 156 146 134 126 108 92 75 51 36 15 0 335 321 316 309 303 301 300 315 324 327 339 348 344 341 343 347 350 350 350 351 352
239 232 233 225 230 237 240 244 253 247 211 216 223 225 227 225 219 213 208 209 206 213 207 207 205 197 186 175 169 177 172 165 163 157 153 144 145 145 155 152 146 147 147 154 151 143 142 150 157 157 153 154 152 149 150 147 139 126 129 117 103 94 77 42 12 353 317 310 311 315 315 305 308 325 323 326 324 335 347 348 344 345 349 353 353 353 354
243 234 240 237 235 240 240 247 248 249 220 203 215 218 222 224 222 210 209 214 215 210 203 208 209 194 178 175 173 169 166 166 166 167 156 135 149 149 145 144 156 158 158 145 129 132 142 153 152 157 145 148 148 153 153 153 136 119 127 114 121 107 101 54 17 332 323 314 315 312 309 314 328 332 331 333 334 328 333 342 344 348 352 354 355 355 354
242 248 249 249 244 246 250 257 255 246 233 203 212 219 223 219 217 207 206 211 213 213 207 204 191 186 176 169 171 163 155 159 159 142 132 148 145 147 160 171 162 130 118 123 124 137 145 155 153 147 142 146 153 149 150 149 134 128 126 131 131 140 137 130 18 326 318 311 317 306 294 307 319 329 327 329 327 327 331 333 342 345 349 355 355 351 353
240 244 250 260 258 254 238 235 247 236 233 192 207 216 219 219 212 207 209 212 214 206 207 199 180 163 159 168 159 160 155 147 146 151 147 147 164 173 174 128 136 137 131 123 132 149 147 149 147 142 141 145 139 140 149 139 129 120 124 122 137 119 100 56 83 305 310 319 311 295 301 320 327 331 326 326 331 338 342 340 339 338 336 336 344 349 352
234 235 229 238 242 241 243 236 240 245 216 197 209 217 221 197 171 196 206 206 200 195 154 138 154 163 164 162 151 144 139 150 156 156 160 171 168 162 152 140 135 128 127 125 133 146 149 150 143 135 138 142 146 145 143 146 128 124 124 120 116 110 104 63 355 238 310 303 304 293 294 316 322 320 314 326 338 338 334 332 330 330 329 337 330 334 348
238 238 237 238 244 248 253 254 214 215 225 214 209 201 177 178 195 196 201 202 194 162 166 178 172 168 163 162 157 156 158 159 163 168 172 147 151 135 129 119 115 109 116 127 132 144 143 145 147 141 149 150 139 142 149 141 129 130 129 128 121 120 154 208 200 200 340 310 290 295 338 334 330 326 328 337 337 339 340 337 333 332 330 327 333 341 349
241 240 242 242 242 245 249 250 240 229 222 207 191 201 193 185 188 203 204 193 169 185 189 167 165 173 163 161 167 161 166 171 168 161 156 149 127 123 124 113 101 98 110 142 161 163 165 160 153 146 149 151 143 147 146 133 123 128 129 131 139 155 185 197 144 79 15 317 313 347 332 334 330 329 332 343 347 344 340 340 338 337 337 340 346 349 349
239 238 240 244 245 245 245 247 248 242 222 205 198 195 200 198 202 201 198 192 186 186 171 170 171 161 170 175 171 167 156 150 152 154 137 127 138 141 139 142 138 163 180 176 168 169 160 145 146 139 143 135 137 148 143 133 128 125 112 115 150 123 87 67 69 105 63 334 338 348 347 342 344 350 353 349 349 346 347 339 335 338 337 339 345 349 344
245 244 243 242 241 242 241 241 243 241 227 200 192 200 197 197 203 207 199 182 189 182 166 164 169 177 175 161 155 151 148 140 136 128 129 134 141 153 161 158 159 160 165 146 133 151 154 147 155 151 141 132 133 151 143 131 133 120 122 123 100 75 19 78 63 18 41 341 354 353 348 346 344 353 350 356 350 341 334 338 340 338 335 341 343 342 333
242 245 244 242 243 242 242 236 233 235 226 211 206 210 210 208 209 205 193 184 167 164 173 178 177 164 155 151 150 147 129 124 117 123 133 138 146 142 150 148 122 141 150 162 165 163 154 157 152 136 129 126 136 140 142 137 132 125 131 119 119 115 75 65 81 75 1 29 13 350 343 332 336 338 340 339 335 332 332 336 335 334 336 333 330 334 325
236 235 237 234 230 232 232 235 230 234 232 226 219 219 221 212 207 200 185 174 173 173 177 176 164 156 152 152 138 132 125 119 136 147 147 142 135 146 151 115 118 124 133 141 142 146 157 143 128 135 128 135 145 141 136 135 126 125 129 125 119 112 103 106 67 113 81 25 3 351 333 330 338 341 341 341 336 331 340 336 336 335 333 331 330 333 334
242 243 241 243 242 240 235 235 233 231 232 233 228 221 216 208 198 192 180 172 176 184 174 152 151 151 149 140 139 146 149 154 145 143 152 145 144 140 128 119 106 110 115 124 140 139 138 137 143 122 136 141 136 142 140 132 135 127 132 127 123 121 126 113 116 99 88 31 345 354 347 347 340 338 343 342 336 335 333 332 334 336 339 336 333 336 340
252 250 248 248 246 242 237 235 236 235 231 230 228 215 206 198 190 181 178 186 177 152 148 152 145 139 148 152 153 156 158 153 145 138 136 139 131 118 124 122 128 130 129 127 149 134 129 119 137 139 138 142 140 136 136 134 131 129 130 123 122 116 115 112 98 65 75 65 33 359 329 351 352 345 346 340 334 336 339 340 337 339 337 334 329 337 337
274 272 262 251 246 244 243 242 238 235 230 224 214 204 198 191 192 185 151 128 144 158 149 137 147 155 166 166 159 155 155 152 146 142 135 129 124 122 117 122 141 150 149 156 172 153 150 141 145 141 137 138 139 139 142 138 129 127 114 116 122 121 118 106 106 85 58 23 45 4 349 352 345 340 343 345 346 343 345 342 337 336 340 337 339 337 340
244 246 248 251 253 249 247 245 242 236 228 209 185 174 172 174 168 153 161 159 153 151 155 159 162 158 143 136 144 147 144 141 145 138 130 132 137 127 134 152 160 160 172 175 143 139 151 149 145 142 140 142 141 144 140 137 126 121 120 132 133 132 124 118 100 87 77 29 51 42 350 358 359 354 344 347 343 344 343 335 335 338 338 342 341 340 341
259 252 248 243 247 249 249 249 160 170 171 177 178 169 166 154 148 145 147 155 149 145 146 142 132 136 146 145 142 138 142 147 140 127 133 136 151 156 167 170 162 151 107 118 140 137 136 148 147 143 146 150 141 130 135 131 122 119 125 131 130 132 128 121 119 107 88 75 15 51 9 355 3 2 348 346 342 345 340 340 341 338 344 342 345 345 342
249 246 237 229 232 231 204 181 198 199 195 182 161 159 153 142 143 141 137 135 145 150 146 143 145 146 148 146 141 142 144 134 132 130 136 141 145 131 107 84 93 102 125 132 135 142 144 135 131 130 137 147 145 138 130 129 123 119 127 133 140 134 126 124 112 110 110 88 49 42 23 13 2 355 339 342 346 345 342 340 341 342 343 340 344 340 341
256 241 226 212 213 183 193 188 189 174 156 156 153 146 148 146 137 134 141 139 143 151 149 150 147 146 148 145 143 126 105 123 131 143 145 142 147 156 157 163 153 133 141 143 142 136 136 140 145 142 150 140 143 134 132 129 125 128 131 139 142 139 134 127 129 129 144 141 144 155 45 29 7 353 333 344 340 340 334 332 335 337 336 341 339 340 340
272 269 251 215 207 204 190 152 124 118 120 119 126 132 138 141 144 141 135 133 135 140 141 147 147 144 135 122 110 109 104 120 125 137 157 159 164 162 156 139 134 136 134 128 129 130 133 135 143 140 135 135 141 138 129 131 133 139 142 146 141 139 138 134 131 145 153 156 179 219 223 13 48 346 331 337 336 338 333 334 333 336 340 341 341 338 332
288 277 249 239 94 91 109 121 126 119 106 106 120 124 124 121 120 123 130 135 137 137 134 129 123 120 121 118 119 119 120 134 136 143 121 31 34 351 141 132 129 134 140 137 138 138 142 142 136 143 141 137 139 135 126 128 137 140 146 149 144 142 137 136 136 140 139 148 211 220 225 216 151 356 327 324 319 320 322 329 331 329 331 333 333 332 335
217 166 132 116 110 112 111 111 110 111 110 107 109 115 118 120 129 134 137 137 136 137 134 134 134 136 135 130 119 120 134 139 141 148 132 112 76 42 95 125 126 137 144 139 139 140 140 131 138 136 134 132 139 136 128 139 140 145 150 150 149 143 141 137 136 141 164 189 204 225 225 224 183 225 250 316 311 320 317 316 311 314 317 322 320 322 322
205 152 139 133 128 121 121 125 124 118 107 102 97 100 110 119 122 130 134 135 134 131 131 129 133 135 132 141 137 112 127 136 148 149 145 144 141 140 141 122 130 141 142 139 134 134 137 131 134 134 136 140 139 134 126 143 146 149 151 150 150 146 144 145 155 166 177 194 207 224 212 219 197 220 222 275 292 306 306 307 304 313 321 323 330 333 337
49 67 97 102 98 98 101 103 103 106 107 100 89 77 86 101 108 108 116 126 127 130 133 134 127 132 133 114 95 113 118 108 61 21 10 117 152 135 144 141 141 142 139 135 128 131 131 131 135 134 136 141 141 141 142 144 145 146 146 149 151 149 148 149 155 167 177 189 209 221 229 231 237 237 227 235 248 275 293 298 304 309 304 302 303 311 314
83 78 79 87 84 94 101 102 107 108 109 106 98 83 90 93 94 94 89 87 95 98 99 106 89 90 117 136 139 138 128 105 67 47 55 87 92 109 132 129 131 134 135 133 133 132 137 138 136 139 143 142 141 138 142 144 147 151 148 149 150 155 150 154 162 176 177 191 208 219 225 215 213 225 245 289 294 285 281 294 298 301 302 308 309 313 318
76 74 73 99 104 105 106 108 109 107 104 110 104 80 98 93 92 91 93 94 93 94 97 97 95 100 104 101 63 81 137 144 134 120 142 116 116 123 132 140 140 136 126 117 117 122 130 135 139 141 142 140 133 140 144 146 147 148 147 151 154 155 149 158 162 172 187 198 215 218 248 266 273 254 257 256 266 264 274 274 285 296 300 302 299 306 311
51 72 75 78 86 94 96 96 96 92 83 101 97 89 102 99 93 91 94 95 93 96 95 90 93 93 84 74 81 91 64 4 55 128 140 128 126 126 121 125 129 128 123 123 122 124 136 137 138 138 131 125 137 142 144 148 146 146 151 155 153 156 156 159 180 175 179 203 216 213 227 229 250 242 265 266 276 273 278 281 279 280 287 293 300 306 307
40 53 57 47 52 55 76 98 92 80 95 99 88 103 110 108 95 85 95 101 101 96 90 83 77 79 76 75 64 73 60 83 93 97 108 112 114 117 124 129 129 123 122 123 124 124 136 134 133 129 130 139 140 142 146 145 148 146 152 149 148 144 154 159 172 182 192 207 213 220 224 233 240 244 250 259 270 277 270 269 271 281 292 301 304 302 303
36 44 45 54 58 62 68 72 79 86 84 89 94 96 98 93 90 97 103 114 110 102 100 86 68 71 66 72 73 67 88 95 96 104 107 111 112 116 120 122 123 122 122 120 125 132 134 133 134 126 129 138 142 148 152 149 147 148 152 154 150 145 153 160 168 194 200 205 212 224 228 233 232 252 255 261 272 283 281 284 284 286 284 289 291 293 295
57 50 60 61 60 65 60 62 67 68 75 78 85 91 92 101 105 102 99 87 59 100 118 115 100 41 55 80 84 90 95 95 86 89 99 102 109 110 115 115 113 115 117 117 119 126 123 127 130 129 132 135 144 145 137 133 133 142 140 140 140 145 150 164 171 187 209 217 219 231 239 232 222 246 269 268 273 275 284 285 285 282 288 285 285 290 293